Regional Weather Roundup
Issued by NWS

Home | Current Version | Previous Version | Graphics & Text | Print | Product List | Glossary On
Versions: 1 2 3 4 5 6 7 8 9 10 11 12 13 14 15 16 17 18 19 20 21 22 23 24 25 26 27 28 29 30 31 32 33 34 35 36 37 38 39 40 41 42 43 44 45 46 47 48 49 50
000
ASUS43 KIND 190409
RWRIN

WEATHER ROUNDUP FOR INDIANA
NATIONAL WEATHER SERVICE INDIANAPOLIS IN
1200 AM EDT THU APR 19 2018

NOTE: "FAIR" INDICATES FEW OR NO CLOUDS BELOW 12,000 FEET WITH NO
SIGNIFICANT WEATHER AND/OR OBSTRUCTIONS TO VISIBILITY.

* - STATION DOES NOT REPORT WEATHER SUCH AS PRECIPITATION OR FOG.

+ - STATION NOT QUALITY CONTROLLED BY THE NATIONAL WEATHER SERVICE.
    USE DATA WITH CAUTION...ESPECIALLY DEWPOINT AND RELATIVE
    HUMIDITY OBSERVATIONS.

INZ001>003-010>013-019-020-190500-
NORTHWEST INDIANA

CITY           SKY/WX    TMP DP  RH WIND       PRES   REMARKS
GARY /AIRPORT/ MIX PCPN  35  34  99 NW10      29.91R WCI  27
KNOX *+        CLOUDY    36  34  93 W10       29.85S WCI  28
LA PORTE +     DRIZZLE   35  34  96 NW8       29.86R WCI  29
MICHIGAN CITY+ RAIN      34  34 100 N6        29.87R WCI  29
MONTICELLO +   CLOUDY    35  33  93 W13       29.89R WCI  26
RENSSELAER +   CLOUDY    34  32  93 W14       29.90R WCI  24
VALPARAISO     CLOUDY    35  33  92 W12       29.88R FOG     WCI  27

$$

LMZ046-743>745-190500-
SOUTHERN LAKE MICHIGAN

STATION/POSITION TIME  TEMP    WIND        PRES    WAVE
                       AIR SEA DIR/SP/G            HT
                 (UTC) (F)     (DEG/KT/KT) (MB)    (FT)
BURNS HARBOR     0340   36      10/ 14/ 16 1012.2S
MICHIGAN CITY    0340   35     360/ 19/ 20   N/A

$$

INZ004-005-014>016-021>024-190500-
NORTH CENTRAL INDIANA

CITY           SKY/WX    TMP DP  RH WIND       PRES   REMARKS
GOSHEN         CLOUDY    38  36  92 N6        29.83S FOG     WCI  33
LOGANSPORT +   CLOUDY    36  32  87 W14       29.87R WCI  27
PERU/GRISSOM   CLOUDY    37  37  99 W16       29.84R WCI  28
ROCHESTER +    RAIN      37  37 100 W9        29.84F WCI  31
SOUTH BEND     LGT RAIN  35  34  96 N7        29.85R FOG     WCI  29
WARSAW +       LGT RAIN  36  36 100 CALM      29.82F

$$

INZ006>009-017-018-025>027-190500-
NORTHEAST INDIANA

CITY           SKY/WX    TMP DP  RH WIND       PRES   REMARKS
ANGOLA *+        N/A     36  34  93 E8        29.83S FOG     WCI  29
AUBURN +       DRIZZLE   34  34 100 E5        29.84R WCI  30
FORT WAYNE     DRIZZLE   37  36  96 E8        29.83S FOG     WCI  31
HUNTINGTON +   CLOUDY    38  37  96 NW3       29.81F FOG
KENDALLVILLE + DRIZZLE   34  34 100 E6        29.84S WCI  29

$$

INZ028-029-035-036-043>045-051>053-190500-
WEST CENTRAL INDIANA

CITY           SKY/WX    TMP DP  RH WIND       PRES   REMARKS
CRAWFORDSVL +  CLOUDY    35  30  82 W21       29.91S WCI  24
GREENCASTLE +  CLOUDY    37  28  70 W9G23     29.92R WCI  31
LAFAYETTE      CLOUDY    36  32  85 W15       29.90R WCI  27
TERRE HAUTE    CLOUDY    40  29  64 W17G30    29.96R WCI  31

$$

INZ030>032-037>040-046>048-054>057-064-065-190500-
CENTRAL INDIANA

CITY           SKY/WX    TMP DP  RH WIND       PRES   REMARKS
FISHERS *+     CLOUDY    37  34  87 NW15G23   29.89R WCI  28
FRANKFORT +    CLOUDY    39  33  78 NW20      29.90R WCI  29
GREENWOOD *+   CLOUDY    40  30  68 NW15G30   29.89R WCI  32
INDIANAPOLIS   CLOUDY    40  30  67 W25       29.90R WCI  29
-EAGLE CREEK   CLOUDY    40  32  73 NW18G29   29.89R WCI  31
KOKOMO +       CLOUDY    37  33  85 W21G28    29.86R WCI  26
MARION +       CLOUDY    38  34  84 W20       29.85R WCI  28
MT COMFORT *+  CLOUDY    39  34  81 NW22G30   29.88R WCI  29
SHELBYVILLE    CLOUDY    43  32  65 W14       29.87R
ZIONSVILLE +   LGT RAIN  36  32  84 W14G22    29.89R WCI  27

$$

INZ033-034-041-042-049-050-058-059-190500-
EAST CENTRAL INDIANA

CITY           SKY/WX    TMP DP  RH WIND       PRES   REMARKS
MUNCIE         CLOUDY    41  33  73 W12       29.84R
RICHMOND +     CLOUDY    41  32  70 NW25G32   29.83R

$$

INZ060-061-067>069-081>083-085>088-190500-
SOUTHWEST INDIANA

CITY           SKY/WX    TMP DP  RH WIND       PRES   REMARKS
EVANSVILLE     CLOUDY    47  35  63 NW18G31   30.00R
HUNTINGBURG +  CLOUDY    45  33  63 NW23G31   29.97R
WASHINGTON +   CLOUDY    41  29  62 NW21G31   29.97R

$$

INZ062-063-066-070>080-084-089>092-190500-
SOUTH CENTRAL AND SOUTHEAST INDIANA

CITY           SKY/WX    TMP DP  RH WIND       PRES   REMARKS
BATESVILLE +   CLOUDY    43  34  70 MISG      29.85R
BLOOMINGTON    CLOUDY    41  29  62 NW20G30   29.93R
FRENCH LICK *+ CLOUDY    43  28  56 W14G23    29.95R
MADISON *+     MOCLDY    45  32  61 W13       29.90R
NORTH VERNON + CLOUDY    43  32  65 W20G26    29.90R
SEYMOUR +      CLOUDY    46  32  57 W15G23    29.90R

$$





USA.gov is the U.S. government's official web portal to all federal, state and local government web resources and services.